#timestamp,LO_Frequency,Hit,StdDev 
1596700815.9,286046999.7,N
1596700835.7,286047002.4,N
1596700855.5,286046999.8,N
1596700875.4,286047000.4,N
1596700895.2,286047000.1,N
1596700915.1,286047000.3,N
1596700916.0,286047000.3,N
1596700935.8,286047000.0,N
1596700955.6,286046998.5,N
1596700975.5,286046998.1,N
1596700995.3,286047000.5,N
1596701015.2,286047000.7,N
1596701035.9,286047000.3,N
1596701055.7,286047000.3,N
1596701075.6,286047000.3,N
1596701095.4,286047000.9,N
1596701115.2,286047000.0,N
1596701135.1,286046999.9,N
1596701136.0,286046999.9,N
1596701155.8,286047002.6,N
1596701175.7,286047002.0,N
1596701195.5,286047002.1,N
1596701215.3,286047001.7,N
1596701235.2,286047001.5,N
1596701255.0,286047002.2,N
1596701255.9,286047002.2,N
1596701275.8,286047001.6,N
1596701295.6,286047002.6,N
1596701315.4,286047002.7,N
1596701335.3,286047001.6,N
1596701355.1,286047002.3,N
1596701375.9,286047002.5,N
1596701395.7,286047002.4,N
1596701415.5,286047000.2,N
1596701435.4,286047001.9,N
1596701455.2,286047002.2,N
1596701475.0,286047004.4,Y
1596701476.0,286047004.4,P
1596701495.8,286047002.0,N
1596701515.6,286047002.8,N
1596701535.5,286047000.5,N
1596701555.3,286047000.6,N
1596701575.1,286047000.4,N
1596701595.9,286047000.8,N
1596701645.7,286047001.0,E
1596701655.6,286047001.2,N
1596701675.5,286046998.5,P
1596701695.3,286047000.0,N
1596701715.2,286046998.1,N
1596701735.9,286046999.9,N
1596701755.7,286047000.2,N
1596701775.6,286047000.4,N
1596701795.4,286046999.9,N
1596701815.2,286047000.9,N
1596701835.1,286047000.2,N
1596701836.0,286047000.2,N
1596701855.8,286046999.9,N
1596701875.7,286047000.4,N
1596701895.5,286047000.3,N
1596701915.4,286047000.8,N
1596701935.2,286047001.0,N
1596701955.0,286047001.2,N
1596701955.9,286047001.2,N
1596701975.8,286046998.4,N
1596701995.6,286046999.0,N
1596702015.4,286046998.2,N
1596702035.3,286046999.2,N
1596702055.1,286046998.9,N
1596702075.9,286046998.7,N
1596702095.7,286047000.8,N
1596702115.5,286047000.9,N
1596702135.4,286047000.0,N
1596702155.2,286046998.5,N
1596702175.0,286047001.0,N
1596702176.0,286047001.0,N
1596702195.8,286047000.9,N
1596702215.6,286046998.1,N
1596702235.5,286046998.3,N
1596702255.3,286046998.7,N
1596702275.1,286046998.7,N
1596702295.9,286046998.7,N
1596702315.7,286046998.3,N
1596702335.6,286046999.3,N
1596702355.4,286047001.1,N
1596702375.2,286046998.2,N
1596702395.1,286047000.9,N
1596702396.0,286047000.9,N
1596702415.8,286047000.0,N
1596702435.7,286046999.9,N
1596702455.5,286047002.8,N
1596702475.3,286046999.8,N
1596702495.2,286047000.1,N
1596702515.0,286047000.2,N
1596702515.9,286047000.2,N
1596702535.8,286047000.7,N
1596702555.6,286047001.1,N
1596702575.5,286047001.1,N
1596702595.3,286046998.5,N
1596702615.1,286046998.5,N
1596702635.9,286046998.6,N
1596702655.7,286046996.5,N
1596702675.5,286046999.6,N
1596702695.4,286046996.9,N
1596702715.2,286046999.5,N
1596702735.1,286046996.9,N
1596702736.0,286046996.9,N
1596702755.8,286046998.9,N
1596702775.7,286046998.7,N
1596702795.5,286046998.6,N
1596702815.3,286046998.2,N
1596702835.2,286046998.2,N
1596702855.0,286047001.2,N
1596702855.9,286047001.2,N
1596702875.7,286046998.7,N
1596702895.6,286046998.5,N
1596702915.4,286046998.1,N
1596702935.3,286046998.5,N
1596702955.1,286046998.4,N
1596702975.8,286046998.3,N
1596702995.7,286046999.2,N
1596703015.5,286046999.0,N
1596703035.4,286046997.2,N
1596703055.2,286046997.0,N
1596703075.0,286046997.4,N
1596703075.9,286046997.4,N
1596703095.8,286046996.7,N
1596703115.6,286046997.0,N
1596703135.5,286046996.8,N
1596703155.3,286046996.8,N
1596703175.1,286046996.6,N
1596703195.9,286046999.0,N
1596703215.7,286046996.5,N
1596703235.6,286046997.3,N
1596703255.4,286046996.9,N
1596703275.2,286046998.7,N
1596703295.1,286046998.7,N
1596703296.0,286046998.7,N
1596703315.8,286047000.6,N
1596703335.6,286047001.1,N
1596703355.5,286047001.1,N
1596703375.3,286046998.7,N
1596703395.2,286046998.6,N
1596703415.9,286046998.8,N
1596703435.7,286046998.3,N
1596703455.6,286047000.5,N
1596703475.4,286047000.3,N
1596703495.2,286047000.4,N
1596703515.1,286047000.6,N
1596703516.0,286047000.6,N
1596703535.8,286046998.7,N
1596703555.7,286047001.2,N
1596703575.5,286047000.7,N
1596703595.3,286046998.2,N
1596703615.2,286047000.9,N
1596703635.0,286047000.4,N
1596703635.9,286047000.4,N
1596703655.8,286046998.3,N
1596703675.6,286047001.0,N
1596703695.4,286046998.6,N
1596703715.3,286047001.2,N
1596703735.1,286047000.6,N
1596703755.9,286047000.7,N
1596703775.7,286047001.0,N
1596703795.5,286046998.2,N
1596703815.4,286046999.3,N
1596703835.2,286046998.9,N
1596703855.0,286046999.0,N
1596703855.9,286046999.0,N
1596703875.8,286046999.0,N
1596703895.6,286046999.1,N
1596703915.5,286046998.6,N
1596703935.3,286046998.4,N
1596703955.1,286046996.9,N
1596703975.9,286046996.9,N
1596703995.7,286046999.6,N
1596704015.6,286046999.1,N
1596704035.4,286046996.5,N
1596704055.2,286046999.5,N
1596704075.1,286046999.2,N
1596704076.0,286046999.2,N
1596704095.8,286046998.4,N
1596704115.7,286046998.3,N
1596704135.5,286046998.1,N
1596704155.3,286046998.1,N
1596704175.2,286046998.2,N
1596704195.0,286047000.0,N
1596704195.9,286047000.0,N
1596704215.7,286047000.7,N
1596704235.6,286047000.7,N
1596704255.4,286047001.2,N
1596704275.3,286047000.7,N
1596704295.1,286047001.0,N
1596704296.0,286047001.0,N
1596704315.8,286047000.4,N
1596704335.7,286047001.1,N
1596704355.5,286047000.5,N
1596704375.4,286047000.1,N
1596704395.2,286047002.7,N
